TimeEDT,TemperatureF,Dew PointF,Humidity,Sea Level PressureIn,VisibilityMPH,Wind Direction,Wind SpeedMPH,Gust SpeedMPH,PrecipitationIn,Events,Conditions,WindDirDegrees,DateUTC
12:15 AM,55.4,51.8,88,30.12,10.0,WNW,12.7,-,N/A,,Clear,290,2013-05-17 04:15:00
12:35 AM,53.6,53.6,100,30.13,10.0,West,10.4,-,N/A,,Scattered Clouds,280,2013-05-17 04:35:00
1:15 AM,55.4,51.8,88,30.12,10.0,West,12.7,-,N/A,,Clear,270,2013-05-17 05:15:00
1:35 AM,55.4,51.8,88,30.12,10.0,West,15.0,18.4,N/A,,Clear,270,2013-05-17 05:35:00
1:55 AM,53.6,51.8,94,30.12,10.0,West,12.7,-,N/A,,Scattered Clouds,280,2013-05-17 05:55:00
2:15 AM,53.6,53.6,100,30.12,10.0,West,10.4,-,N/A,,Clear,270,2013-05-17 06:15:00
2:35 AM,53.6,53.6,100,30.13,10.0,West,10.4,-,N/A,,Clear,280,2013-05-17 06:35:00
2:55 AM,53.6,53.6,100,30.13,10.0,West,9.2,-,N/A,,Scattered Clouds,280,2013-05-17 06:55:00
3:15 AM,53.6,53.6,100,30.14,10.0,WNW,8.1,-,N/A,,Scattered Clouds,300,2013-05-17 07:15:00
3:35 AM,55.4,53.6,94,30.14,10.0,West,9.2,-,N/A,,Scattered Clouds,280,2013-05-17 07:35:00
3:55 AM,55.4,53.6,94,30.15,10.0,WNW,9.2,-,N/A,,Clear,290,2013-05-17 07:55:00
4:15 AM,55.4,53.6,94,30.15,10.0,WNW,8.1,-,N/A,,Clear,290,2013-05-17 08:15:00
4:35 AM,55.4,53.6,94,30.15,10.0,NW,5.8,-,N/A,,Clear,310,2013-05-17 08:35:00
4:55 AM,55.4,53.6,94,30.16,10.0,NNW,8.1,-,N/A,,Mostly Cloudy,330,2013-05-17 08:55:00
5:15 AM,55.4,53.6,94,30.16,10.0,NNW,8.1,-,N/A,,Overcast,340,2013-05-17 09:15:00
5:35 AM,55.4,53.6,94,30.17,7.0,NNW,6.9,-,N/A,,Scattered Clouds,330,2013-05-17 09:35:00
5:55 AM,55.4,53.6,94,30.18,7.0,NNW,8.1,-,N/A,,Clear,330,2013-05-17 09:55:00
6:15 AM,55.4,53.6,94,30.19,7.0,NW,8.1,-,N/A,,Mostly Cloudy,320,2013-05-17 10:15:00
6:35 AM,55.4,53.6,94,30.19,7.0,NW,5.8,-,N/A,,Overcast,310,2013-05-17 10:35:00
6:55 AM,55.4,53.6,94,30.20,5.0,WNW,6.9,-,N/A,,Overcast,300,2013-05-17 10:55:00
7:15 AM,55.4,55.4,100,30.20,7.0,WNW,8.1,-,N/A,,Overcast,300,2013-05-17 11:15:00
7:35 AM,55.4,53.6,94,30.21,10.0,NW,6.9,-,N/A,,Overcast,310,2013-05-17 11:35:00
8:15 AM,57.2,53.6,88,30.22,10.0,NW,6.9,-,N/A,,Mostly Cloudy,320,2013-05-17 12:15:00
8:35 AM,57.2,55.4,94,30.22,10.0,NW,6.9,-,N/A,,Mostly Cloudy,320,2013-05-17 12:35:00
8:55 AM,57.2,55.4,94,30.23,10.0,WNW,5.8,-,N/A,,Mostly Cloudy,300,2013-05-17 12:55:00
9:15 AM,57.2,55.4,94,30.24,10.0,NW,5.8,-,N/A,,Mostly Cloudy,310,2013-05-17 13:15:00
9:35 AM,57.2,55.4,94,30.24,7.0,WNW,5.8,-,N/A,,Mostly Cloudy,300,2013-05-17 13:35:00
9:55 AM,59.0,55.4,88,30.24,10.0,NW,4.6,-,N/A,,Mostly Cloudy,310,2013-05-17 13:55:00
10:15 AM,60.8,55.4,82,30.24,10.0,Calm,Calm,-,N/A,,Mostly Cloudy,0,2013-05-17 14:15:00
10:35 AM,62.6,53.6,72,30.24,10.0,ENE,3.5,-,N/A,,Scattered Clouds,70,2013-05-17 14:35:00
10:55 AM,62.6,53.6,72,30.24,10.0,Calm,Calm,-,N/A,,Unknown,0,2013-05-17 14:55:00
11:15 AM,62.6,55.4,77,30.24,10.0,East,4.6,-,N/A,,Mostly Cloudy,80,2013-05-17 15:15:00
11:35 AM,62.6,50.0,63,30.24,10.0,SE,5.8,-,N/A,,Mostly Cloudy,140,2013-05-17 15:35:00
11:55 AM,64.4,51.8,64,30.24,10.0,SSE,6.9,-,N/A,,Scattered Clouds,150,2013-05-17 15:55:00
12:15 PM,64.4,53.6,68,30.24,10.0,SSE,6.9,-,N/A,,Mostly Cloudy,150,2013-05-17 16:15:00
12:35 PM,64.4,53.6,68,30.25,10.0,SE,6.9,-,N/A,,Mostly Cloudy,130,2013-05-17 16:35:00
12:55 PM,64.4,53.6,68,30.25,10.0,ESE,4.6,-,N/A,,Mostly Cloudy,120,2013-05-17 16:55:00
1:15 PM,66.2,55.4,68,30.25,10.0,SE,6.9,-,N/A,,Scattered Clouds,140,2013-05-17 17:15:00
1:35 PM,66.2,55.4,68,30.24,10.0,SE,6.9,-,N/A,,Scattered Clouds,140,2013-05-17 17:35:00
1:55 PM,68.0,55.4,64,30.24,10.0,South,6.9,-,N/A,,Scattered Clouds,190,2013-05-17 17:55:00
2:15 PM,66.2,55.4,68,30.24,10.0,Calm,Calm,-,N/A,,Scattered Clouds,0,2013-05-17 18:15:00
2:35 PM,69.8,55.4,60,30.24,10.0,SSE,8.1,-,N/A,,Scattered Clouds,160,2013-05-17 18:35:00
3:15 PM,66.2,55.4,68,30.24,10.0,SSE,5.8,-,N/A,,Overcast,160,2013-05-17 19:15:00
3:35 PM,66.2,55.4,68,30.23,10.0,SSE,3.5,-,N/A,Rain,Light Rain,160,2013-05-17 19:35:00
3:55 PM,64.4,55.4,73,30.23,10.0,Calm,Calm,-,N/A,,Light Drizzle,0,2013-05-17 19:55:00
3:57 PM,66.2,55.4,68,30.23,10.0,Calm,Calm,-,N/A,,Mostly Cloudy,0,2013-05-17 19:57:00
4:15 PM,66.2,55.4,68,30.22,10.0,SE,5.8,-,N/A,,Scattered Clouds,140,2013-05-17 20:15:00
4:35 PM,66.2,55.4,68,30.22,10.0,SSE,6.9,-,N/A,,Scattered Clouds,160,2013-05-17 20:35:00
4:55 PM,66.2,55.4,68,30.22,10.0,SSE,8.1,-,N/A,,Mostly Cloudy,150,2013-05-17 20:55:00
5:15 PM,66.2,55.4,68,30.22,10.0,SE,6.9,-,N/A,,Mostly Cloudy,140,2013-05-17 21:15:00
5:35 PM,66.2,53.6,64,30.22,10.0,SE,4.6,-,N/A,,Mostly Cloudy,140,2013-05-17 21:35:00
5:55 PM,66.2,53.6,64,30.23,10.0,SSE,6.9,-,N/A,,Overcast,160,2013-05-17 21:55:00
6:15 PM,64.4,53.6,68,30.22,10.0,SSE,5.8,-,N/A,,Overcast,160,2013-05-17 22:15:00
6:35 PM,64.4,55.4,73,30.22,10.0,SSE,5.8,-,N/A,,Scattered Clouds,160,2013-05-17 22:35:00
6:55 PM,64.4,55.4,73,30.23,10.0,South,8.1,-,N/A,Rain,Light Rain,180,2013-05-17 22:55:00
7:15 PM,62.6,57.2,82,30.23,10.0,South,8.1,-,N/A,,Mostly Cloudy,180,2013-05-17 23:15:00
7:35 PM,62.6,55.4,77,30.23,10.0,South,5.8,-,N/A,,Overcast,190,2013-05-17 23:35:00
7:55 PM,62.6,53.6,72,30.24,10.0,WSW,8.1,-,N/A,,Overcast,240,2013-05-17 23:55:00
8:15 PM,62.6,55.4,77,30.24,10.0,WSW,8.1,-,N/A,,Overcast,240,2013-05-18 00:15:00
8:35 PM,60.8,55.4,82,30.25,10.0,West,6.9,-,N/A,,Light Drizzle,260,2013-05-18 00:35:00
8:55 PM,60.8,55.4,82,30.25,10.0,SW,3.5,-,N/A,,Overcast,220,2013-05-18 00:55:00
9:15 PM,60.8,55.4,82,30.25,10.0,WSW,6.9,-,N/A,,Overcast,240,2013-05-18 01:15:00
9:35 PM,60.8,53.6,77,30.26,10.0,WSW,8.1,-,N/A,,Overcast,250,2013-05-18 01:35:00
9:55 PM,60.8,53.6,77,30.26,10.0,West,6.9,-,N/A,,Light Drizzle,260,2013-05-18 01:55:00
10:15 PM,60.8,55.4,82,30.26,10.0,West,5.8,-,N/A,,Light Drizzle,270,2013-05-18 02:15:00
10:35 PM,60.8,53.6,77,30.26,10.0,West,3.5,-,N/A,,Mostly Cloudy,280,2013-05-18 02:35:00
10:55 PM,60.8,53.6,77,30.26,10.0,Calm,Calm,-,N/A,,Overcast,0,2013-05-18 02:55:00
11:15 PM,60.8,53.6,77,30.27,10.0,Calm,Calm,-,N/A,,Overcast,0,2013-05-18 03:15:00
11:35 PM,60.8,53.6,77,30.26,10.0,Calm,Calm,-,N/A,,Overcast,0,2013-05-18 03:35:00
11:55 PM,60.8,53.6,77,30.26,10.0,Calm,Calm,-,N/A,,Mostly Cloudy,0,2013-05-18 03:55:00